Year,Month,Day,Hour,Minute,Value (Times are PST for temperature in C)
2015,06,22,00,00,17.30
2015,06,22,00,01,17.30
2015,06,22,00,02,17.30
2015,06,22,00,03,17.30
2015,06,22,00,04,17.30
2015,06,22,00,05,17.20
2015,06,22,00,06,17.20
2015,06,22,00,07,17.20
2015,06,22,00,08,17.20
2015,06,22,00,09,17.20
2015,06,22,00,10,17.20
2015,06,22,00,11,17.20
2015,06,22,00,12,17.20
2015,06,22,00,13,17.20
2015,06,22,00,14,17.20
2015,06,22,00,15,17.20
2015,06,22,00,16,17.20
2015,06,22,00,17,17.20
2015,06,22,00,18,17.20
2015,06,22,00,19,17.20
2015,06,22,00,20,17.20
2015,06,22,00,21,17.20
2015,06,22,00,22,17.20
2015,06,22,00,23,17.20
2015,06,22,00,24,17.10
2015,06,22,00,25,17.10
2015,06,22,00,26,17.10
2015,06,22,00,27,17.10
2015,06,22,00,28,17.10
2015,06,22,00,29,17.10
2015,06,22,00,30,17.10
2015,06,22,00,31,17.00
2015,06,22,00,32,17.00
2015,06,22,00,33,16.90
2015,06,22,00,34,16.90
2015,06,22,00,35,16.90
2015,06,22,00,36,16.80
2015,06,22,00,37,16.80
2015,06,22,00,38,16.70
2015,06,22,00,39,16.60
2015,06,22,00,40,16.60
2015,06,22,00,41,16.50
2015,06,22,00,42,16.40
2015,06,22,00,43,16.30
2015,06,22,00,44,16.30
2015,06,22,00,45,16.20
2015,06,22,00,46,16.10
2015,06,22,00,47,16.10
2015,06,22,00,48,16.00
2015,06,22,00,49,16.00
2015,06,22,00,50,15.90
2015,06,22,00,51,15.90
2015,06,22,00,52,15.90
2015,06,22,00,53,15.90
2015,06,22,00,54,15.90
2015,06,22,00,55,15.90
2015,06,22,00,56,15.90
2015,06,22,00,57,15.90
2015,06,22,00,58,15.90
2015,06,22,00,59,15.90
2015,06,22,01,00,15.80
2015,06,22,01,01,15.80
2015,06,22,01,02,15.80
2015,06,22,01,03,15.90
2015,06,22,01,04,15.90
2015,06,22,01,05,16.00
2015,06,22,01,06,16.00
2015,06,22,01,07,16.10
2015,06,22,01,08,16.10
2015,06,22,01,09,16.10
2015,06,22,01,10,16.20
2015,06,22,01,11,16.20
2015,06,22,01,12,16.20
2015,06,22,01,13,16.20
2015,06,22,01,14,16.20
2015,06,22,01,15,16.20
2015,06,22,01,16,16.30
2015,06,22,01,17,16.30
2015,06,22,01,18,16.30
2015,06,22,01,19,16.30
2015,06,22,01,20,16.20
2015,06,22,01,21,16.20
2015,06,22,01,22,16.20
2015,06,22,01,23,16.20
2015,06,22,01,24,16.10
2015,06,22,01,25,16.10
2015,06,22,01,26,16.00
2015,06,22,01,27,15.90
2015,06,22,01,28,15.90
2015,06,22,01,29,15.80
2015,06,22,01,30,15.80
2015,06,22,01,31,15.80
2015,06,22,01,32,15.80
2015,06,22,01,33,15.80
2015,06,22,01,34,15.70
2015,06,22,01,35,15.70
2015,06,22,01,36,15.70
2015,06,22,01,37,15.70
2015,06,22,01,38,15.60
2015,06,22,01,39,15.60
2015,06,22,01,40,15.50
2015,06,22,01,41,15.40
2015,06,22,01,42,15.40
2015,06,22,01,43,15.30
2015,06,22,01,44,15.30
2015,06,22,01,45,15.30
2015,06,22,01,46,15.30
2015,06,22,01,47,15.20
2015,06,22,01,48,15.20
2015,06,22,01,49,15.10
2015,06,22,01,50,15.10
2015,06,22,01,51,15.00
2015,06,22,01,52,15.00
2015,06,22,01,53,15.00
2015,06,22,01,54,15.00
2015,06,22,01,55,15.00
2015,06,22,01,56,15.00
2015,06,22,01,57,15.00
2015,06,22,01,58,15.00
2015,06,22,01,59,15.00
2015,06,22,02,00,15.00
2015,06,22,02,01,15.00
2015,06,22,02,02,14.90
2015,06,22,02,03,14.90
2015,06,22,02,04,14.90
2015,06,22,02,05,14.80
2015,06,22,02,06,14.80
2015,06,22,02,07,14.70
2015,06,22,02,08,14.70
2015,06,22,02,09,14.70
2015,06,22,02,10,14.70
2015,06,22,02,11,14.60
2015,06,22,02,12,14.60
2015,06,22,02,13,14.60
2015,06,22,02,14,14.60
2015,06,22,02,15,14.50
2015,06,22,02,16,14.50
2015,06,22,02,17,14.60
2015,06,22,02,18,14.60
2015,06,22,02,19,14.60
2015,06,22,02,20,14.50
2015,06,22,02,21,14.50
2015,06,22,02,22,14.50
2015,06,22,02,23,14.50
2015,06,22,02,24,14.40
2015,06,22,02,25,14.40
2015,06,22,02,26,14.40
2015,06,22,02,27,14.30
2015,06,22,02,28,14.30
2015,06,22,02,29,14.30
2015,06,22,02,30,14.30
2015,06,22,02,31,14.30
2015,06,22,02,32,14.20
2015,06,22,02,33,14.20
2015,06,22,02,34,14.20
2015,06,22,02,35,14.20
2015,06,22,02,36,14.20
2015,06,22,02,37,14.20
2015,06,22,02,38,14.20
2015,06,22,02,39,14.20
2015,06,22,02,40,14.20
2015,06,22,02,41,14.10
2015,06,22,02,42,14.20
2015,06,22,02,43,14.20
2015,06,22,02,44,14.10
2015,06,22,02,45,14.10
2015,06,22,02,46,14.10
2015,06,22,02,47,14.10
2015,06,22,02,48,14.10
2015,06,22,02,49,14.10
2015,06,22,02,50,14.10
2015,06,22,02,51,14.10
2015,06,22,02,52,14.10
2015,06,22,02,53,14.10
2015,06,22,02,54,14.10
2015,06,22,02,55,14.10
2015,06,22,02,56,14.10
2015,06,22,02,57,14.10
2015,06,22,02,58,14.00
2015,06,22,02,59,14.00
2015,06,22,03,00,14.00
2015,06,22,03,01,14.00
2015,06,22,03,02,14.00
2015,06,22,03,03,13.90
2015,06,22,03,04,13.90
2015,06,22,03,05,13.90
2015,06,22,03,06,13.90
2015,06,22,03,07,13.90
2015,06,22,03,08,13.80
2015,06,22,03,09,13.80
2015,06,22,03,10,13.80
2015,06,22,03,11,13.80
2015,06,22,03,12,13.80
2015,06,22,03,13,13.70
2015,06,22,03,14,13.70
2015,06,22,03,15,13.70
2015,06,22,03,16,13.70
2015,06,22,03,17,13.60
2015,06,22,03,18,13.60
2015,06,22,03,19,13.60
2015,06,22,03,20,13.60
2015,06,22,03,21,13.50
2015,06,22,03,22,13.50
2015,06,22,03,23,13.50
2015,06,22,03,24,13.40
2015,06,22,03,25,13.40
2015,06,22,03,26,13.40
2015,06,22,03,27,13.40
2015,06,22,03,28,13.40
2015,06,22,03,29,13.40
2015,06,22,03,30,13.30
2015,06,22,03,31,13.30
2015,06,22,03,32,13.40
2015,06,22,03,33,13.40
2015,06,22,03,34,13.40
2015,06,22,03,35,13.50
2015,06,22,03,36,13.50
2015,06,22,03,37,13.60
2015,06,22,03,38,13.60
2015,06,22,03,39,13.60
2015,06,22,03,40,13.60
2015,06,22,03,41,13.60
2015,06,22,03,42,13.70
2015,06,22,03,43,13.70
2015,06,22,03,44,13.80
2015,06,22,03,45,13.80
2015,06,22,03,46,13.90
2015,06,22,03,47,14.00
2015,06,22,03,48,14.10
2015,06,22,03,49,14.20
2015,06,22,03,50,14.30
2015,06,22,03,51,14.40
2015,06,22,03,52,14.50
2015,06,22,03,53,14.50
2015,06,22,03,54,14.60
2015,06,22,03,55,14.60
2015,06,22,03,56,14.60
2015,06,22,03,57,14.60
2015,06,22,03,58,14.60
2015,06,22,03,59,14.50
2015,06,22,04,00,14.50
2015,06,22,04,01,14.40
2015,06,22,04,02,14.50
2015,06,22,04,03,14.50
2015,06,22,04,04,14.60
2015,06,22,04,05,14.70
2015,06,22,04,06,14.70
2015,06,22,04,07,14.70
2015,06,22,04,08,14.70
2015,06,22,04,09,14.70
2015,06,22,04,10,14.70
2015,06,22,04,11,14.60
2015,06,22,04,12,14.60
2015,06,22,04,13,14.50
2015,06,22,04,14,14.40
2015,06,22,04,15,14.40
2015,06,22,04,16,14.30
2015,06,22,04,17,14.20
2015,06,22,04,18,14.20
2015,06,22,04,19,14.10
2015,06,22,04,20,14.10
2015,06,22,04,21,14.00
2015,06,22,04,22,13.90
2015,06,22,04,23,13.90
2015,06,22,04,24,13.80
2015,06,22,04,25,13.80
2015,06,22,04,26,13.70
2015,06,22,04,27,13.70
2015,06,22,04,28,13.60
2015,06,22,04,29,13.60
2015,06,22,04,30,13.50
2015,06,22,04,31,13.50
2015,06,22,04,32,13.40
2015,06,22,04,33,13.30
2015,06,22,04,34,13.30
2015,06,22,04,35,13.20
2015,06,22,04,36,13.20
2015,06,22,04,37,13.20
2015,06,22,04,38,13.10
2015,06,22,04,39,13.10
2015,06,22,04,40,13.10
2015,06,22,04,41,13.10
2015,06,22,04,42,13.20
2015,06,22,04,43,13.20
2015,06,22,04,44,13.20
2015,06,22,04,45,13.20
2015,06,22,04,46,13.10
2015,06,22,04,47,13.10
2015,06,22,04,48,13.10
2015,06,22,04,49,13.10
2015,06,22,04,50,13.10
2015,06,22,04,51,13.10
2015,06,22,04,52,13.10
2015,06,22,04,53,13.00
2015,06,22,04,54,13.00
2015,06,22,04,55,13.00
2015,06,22,04,56,13.00
2015,06,22,04,57,13.00
2015,06,22,04,58,13.00
2015,06,22,04,59,13.00
2015,06,22,05,00,13.10
2015,06,22,05,01,13.10
2015,06,22,05,02,13.10
2015,06,22,05,03,13.10
2015,06,22,05,04,13.10
2015,06,22,05,05,13.10
2015,06,22,05,06,13.00
2015,06,22,05,07,13.00
2015,06,22,05,08,13.00
2015,06,22,05,09,13.00
2015,06,22,05,10,12.90
2015,06,22,05,11,12.90
2015,06,22,05,12,12.90
2015,06,22,05,13,12.90
2015,06,22,05,14,12.80
2015,06,22,05,15,12.80
2015,06,22,05,16,12.80
2015,06,22,05,17,12.70
2015,06,22,05,18,12.70
2015,06,22,05,19,12.70
2015,06,22,05,20,12.70
2015,06,22,05,21,12.70
2015,06,22,05,22,12.70
2015,06,22,05,23,12.70
2015,06,22,05,24,12.70
2015,06,22,05,25,12.70
2015,06,22,05,26,12.60
2015,06,22,05,27,12.60
2015,06,22,05,28,12.60
2015,06,22,05,29,12.60
2015,06,22,05,30,12.60
2015,06,22,05,31,12.50
2015,06,22,05,32,12.50
2015,06,22,05,33,12.50
2015,06,22,05,34,12.50
2015,06,22,05,35,12.40
2015,06,22,05,36,12.40
2015,06,22,05,37,12.40
2015,06,22,05,38,12.40
2015,06,22,05,39,12.40
2015,06,22,05,40,12.40
2015,06,22,05,41,12.40
2015,06,22,05,42,12.40
2015,06,22,05,43,12.30
2015,06,22,05,44,12.30
2015,06,22,05,45,12.30
2015,06,22,05,46,12.30
2015,06,22,05,47,12.30
2015,06,22,05,48,12.30
2015,06,22,05,49,12.30
2015,06,22,05,50,12.20
2015,06,22,05,51,12.20
2015,06,22,05,52,12.20
2015,06,22,05,53,12.20
2015,06,22,05,54,12.20
2015,06,22,05,55,12.20
2015,06,22,05,56,12.20
2015,06,22,05,57,12.20
2015,06,22,05,58,12.20
2015,06,22,05,59,12.20
2015,06,22,06,00,12.20
2015,06,22,06,01,12.30
2015,06,22,06,02,12.30
2015,06,22,06,03,12.30
2015,06,22,06,04,12.30
2015,06,22,06,05,12.40
2015,06,22,06,06,12.40
2015,06,22,06,07,12.50
2015,06,22,06,08,12.50
2015,06,22,06,09,12.60
2015,06,22,06,10,12.70
2015,06,22,06,11,12.80
2015,06,22,06,12,12.80
2015,06,22,06,13,12.90
2015,06,22,06,14,13.00
2015,06,22,06,15,13.10
2015,06,22,06,16,13.10
2015,06,22,06,17,13.20
2015,06,22,06,18,13.20
2015,06,22,06,19,13.20
2015,06,22,06,20,13.30
2015,06,22,06,21,13.30
2015,06,22,06,22,13.40
2015,06,22,06,23,13.40
2015,06,22,06,24,13.50
2015,06,22,06,25,13.50
2015,06,22,06,26,13.60
2015,06,22,06,27,13.60
2015,06,22,06,28,13.60
2015,06,22,06,29,13.70
2015,06,22,06,30,13.70
2015,06,22,06,31,13.70
2015,06,22,06,32,13.70
2015,06,22,06,33,13.80
2015,06,22,06,34,13.80
2015,06,22,06,35,13.80
2015,06,22,06,36,13.90
2015,06,22,06,37,13.90
2015,06,22,06,38,13.90
2015,06,22,06,39,14.00
2015,06,22,06,40,14.10
2015,06,22,06,41,14.10
2015,06,22,06,42,14.20
2015,06,22,06,43,14.20
2015,06,22,06,44,14.30
2015,06,22,06,45,14.40
2015,06,22,06,46,14.60
2015,06,22,06,47,14.70
2015,06,22,06,48,14.80
2015,06,22,06,49,14.90
2015,06,22,06,50,15.00
2015,06,22,06,51,15.00
2015,06,22,06,52,15.00
2015,06,22,06,53,15.00
2015,06,22,06,54,15.00
2015,06,22,06,55,15.20
2015,06,22,06,56,15.30
2015,06,22,06,57,15.40
2015,06,22,06,58,15.50
2015,06,22,06,59,15.60
2015,06,22,07,00,15.70
2015,06,22,07,01,15.80
2015,06,22,07,02,15.80
2015,06,22,07,03,15.90
2015,06,22,07,04,16.00
2015,06,22,07,05,16.10
2015,06,22,07,06,16.20
2015,06,22,07,07,16.30
2015,06,22,07,08,16.40
2015,06,22,07,09,16.50
2015,06,22,07,10,16.60
2015,06,22,07,11,16.80
2015,06,22,07,12,16.90
2015,06,22,07,13,17.00
2015,06,22,07,14,17.10
2015,06,22,07,15,17.20
2015,06,22,07,16,17.30
2015,06,22,07,17,17.30
2015,06,22,07,18,17.40
2015,06,22,07,19,17.40
2015,06,22,07,20,17.50
2015,06,22,07,21,17.50
2015,06,22,07,22,17.50
2015,06,22,07,23,17.50
2015,06,22,07,24,17.40
2015,06,22,07,25,17.40
2015,06,22,07,26,17.40
2015,06,22,07,27,17.40
2015,06,22,07,28,17.40
2015,06,22,07,29,17.50
2015,06,22,07,30,17.50
2015,06,22,07,31,17.60
2015,06,22,07,32,17.60
2015,06,22,07,33,17.60
2015,06,22,07,34,17.70
2015,06,22,07,35,17.70
2015,06,22,07,36,17.70
2015,06,22,07,37,17.80
2015,06,22,07,38,17.80
2015,06,22,07,39,17.90
2015,06,22,07,40,17.90
2015,06,22,07,41,18.00
2015,06,22,07,42,18.10
2015,06,22,07,43,18.20
2015,06,22,07,44,18.20
2015,06,22,07,45,18.30
2015,06,22,07,46,18.40
2015,06,22,07,47,18.50
2015,06,22,07,48,18.60
2015,06,22,07,49,18.60
2015,06,22,07,50,18.60
2015,06,22,07,51,18.60
2015,06,22,07,52,18.60
2015,06,22,07,53,18.50
2015,06,22,07,54,18.40
2015,06,22,07,55,18.40
2015,06,22,07,56,18.40
2015,06,22,07,57,18.40
2015,06,22,07,58,18.50
2015,06,22,07,59,18.50
2015,06,22,08,00,18.50
2015,06,22,08,01,18.60
2015,06,22,08,02,18.60
2015,06,22,08,03,18.60
2015,06,22,08,04,18.70
2015,06,22,08,05,18.70
2015,06,22,08,06,18.80
2015,06,22,08,07,18.80
2015,06,22,08,08,18.80
2015,06,22,08,09,18.80
2015,06,22,08,10,18.80
2015,06,22,08,11,18.80
2015,06,22,08,12,18.80
2015,06,22,08,13,18.80
2015,06,22,08,14,18.90
2015,06,22,08,15,18.90
2015,06,22,08,16,18.90
2015,06,22,08,17,19.00
2015,06,22,08,18,19.00
2015,06,22,08,19,19.10
2015,06,22,08,20,19.10
2015,06,22,08,21,19.10
2015,06,22,08,22,19.00
2015,06,22,08,23,19.00
2015,06,22,08,24,18.90
2015,06,22,08,25,18.90
2015,06,22,08,26,18.80
2015,06,22,08,27,18.80
2015,06,22,08,28,18.70
2015,06,22,08,29,18.60
2015,06,22,08,30,18.60
2015,06,22,08,31,18.60
2015,06,22,08,32,18.60
2015,06,22,08,33,18.60
2015,06,22,08,34,18.70
2015,06,22,08,35,18.70
2015,06,22,08,36,18.80
2015,06,22,08,37,18.70
2015,06,22,08,38,18.70
2015,06,22,08,39,18.60
2015,06,22,08,40,18.60
2015,06,22,08,41,18.50
2015,06,22,08,42,18.50
2015,06,22,08,43,18.40
2015,06,22,08,44,18.40
2015,06,22,08,45,18.40
2015,06,22,08,46,18.40
2015,06,22,08,47,18.40
2015,06,22,08,48,18.40
2015,06,22,08,49,18.40
2015,06,22,08,50,18.40
2015,06,22,08,51,18.40
2015,06,22,08,52,18.30
2015,06,22,08,53,18.30
2015,06,22,08,54,18.30
2015,06,22,08,55,18.30
2015,06,22,08,56,18.30
2015,06,22,08,57,18.30
2015,06,22,08,58,18.40
2015,06,22,08,59,18.40
2015,06,22,09,00,18.50
2015,06,22,09,01,18.60
2015,06,22,09,02,18.70
2015,06,22,09,03,18.80
2015,06,22,09,04,18.80
2015,06,22,09,05,18.90
2015,06,22,09,06,18.90
2015,06,22,09,07,18.90
2015,06,22,09,08,19.00
2015,06,22,09,09,19.00
2015,06,22,09,10,19.00
2015,06,22,09,11,19.00
2015,06,22,09,12,19.10
2015,06,22,09,13,19.10
2015,06,22,09,14,19.10
2015,06,22,09,15,19.10
2015,06,22,09,16,19.10
2015,06,22,09,17,19.10
2015,06,22,09,18,19.10
2015,06,22,09,19,19.10
2015,06,22,09,20,19.20
2015,06,22,09,21,19.20
2015,06,22,09,22,19.20
2015,06,22,09,23,19.20
2015,06,22,09,24,19.30
2015,06,22,09,25,19.30
2015,06,22,09,26,19.40
2015,06,22,09,27,19.50
2015,06,22,09,28,19.60
2015,06,22,09,29,19.60
2015,06,22,09,30,19.70
2015,06,22,09,31,19.80
2015,06,22,09,32,19.80
2015,06,22,09,33,19.80
2015,06,22,09,34,19.90
2015,06,22,09,35,19.90
2015,06,22,09,36,19.90
2015,06,22,09,37,19.90
2015,06,22,09,38,19.90
2015,06,22,09,39,19.90
2015,06,22,09,40,19.90
2015,06,22,09,41,19.90
2015,06,22,09,42,19.90
2015,06,22,09,43,19.90
2015,06,22,09,44,19.90
2015,06,22,09,45,19.90
2015,06,22,09,46,19.90
2015,06,22,09,47,19.80
2015,06,22,09,48,19.90
2015,06,22,09,49,19.90
2015,06,22,09,50,19.90
2015,06,22,09,51,19.80
2015,06,22,09,52,19.70
2015,06,22,09,53,19.70
2015,06,22,09,54,19.70
2015,06,22,09,55,19.70
2015,06,22,09,56,19.70
2015,06,22,09,57,19.70
2015,06,22,09,58,19.80
2015,06,22,09,59,19.80
2015,06,22,10,00,19.80
2015,06,22,10,01,19.90
2015,06,22,10,02,19.80
2015,06,22,10,03,19.80
2015,06,22,10,04,19.80
2015,06,22,10,05,19.80
2015,06,22,10,06,19.90
2015,06,22,10,07,20.00
2015,06,22,10,08,20.10
2015,06,22,10,09,20.20
2015,06,22,10,10,20.30
2015,06,22,10,11,20.40
2015,06,22,10,12,20.40
2015,06,22,10,13,20.30
2015,06,22,10,14,20.20
2015,06,22,10,15,20.20
2015,06,22,10,16,20.20
2015,06,22,10,17,20.20
2015,06,22,10,18,20.20
2015,06,22,10,19,20.20
2015,06,22,10,20,20.10
2015,06,22,10,21,20.10
2015,06,22,10,22,20.10
2015,06,22,10,23,20.10
2015,06,22,10,24,20.10
2015,06,22,10,25,20.10
2015,06,22,10,26,20.20
2015,06,22,10,27,20.20
2015,06,22,10,28,20.30
2015,06,22,10,29,20.40
2015,06,22,10,30,20.40
2015,06,22,10,31,20.40
2015,06,22,10,32,20.30
2015,06,22,10,33,20.30
2015,06,22,10,34,20.20
2015,06,22,10,35,20.20
2015,06,22,10,36,20.20
2015,06,22,10,37,20.10
2015,06,22,10,38,20.10
2015,06,22,10,39,20.10
2015,06,22,10,40,20.20
2015,06,22,10,41,20.20
2015,06,22,10,42,20.30
2015,06,22,10,43,20.40
2015,06,22,10,44,20.50
2015,06,22,10,45,20.60
2015,06,22,10,46,20.80
2015,06,22,10,47,20.90
2015,06,22,10,48,21.00
2015,06,22,10,49,21.00
2015,06,22,10,50,21.00
2015,06,22,10,51,20.90
2015,06,22,10,52,20.80
2015,06,22,10,53,20.80
2015,06,22,10,54,20.80
2015,06,22,10,55,20.80
2015,06,22,10,56,20.70
2015,06,22,10,57,20.70
2015,06,22,10,58,20.70
2015,06,22,10,59,20.80
2015,06,22,11,00,20.80
2015,06,22,11,01,20.90
2015,06,22,11,02,20.90
2015,06,22,11,03,21.00
2015,06,22,11,04,21.00
2015,06,22,11,05,21.10
2015,06,22,11,06,21.10
2015,06,22,11,07,21.20
2015,06,22,11,08,21.30
2015,06,22,11,09,21.30
2015,06,22,11,10,21.30
2015,06,22,11,11,21.30
2015,06,22,11,12,21.30
2015,06,22,11,13,21.30
2015,06,22,11,14,21.30
2015,06,22,11,15,21.30
2015,06,22,11,16,21.40
2015,06,22,11,17,21.40
2015,06,22,11,18,21.40
2015,06,22,11,19,21.50
2015,06,22,11,20,21.60
2015,06,22,11,21,21.60
2015,06,22,11,22,21.70
2015,06,22,11,23,21.80
2015,06,22,11,24,21.80
2015,06,22,11,25,21.70
2015,06,22,11,26,21.60
2015,06,22,11,27,21.50
2015,06,22,11,28,21.50
2015,06,22,11,29,21.50
2015,06,22,11,30,21.60
2015,06,22,11,31,21.60
2015,06,22,11,32,21.60
2015,06,22,11,33,21.80
2015,06,22,11,34,21.90
2015,06,22,11,35,22.00
2015,06,22,11,36,22.10
2015,06,22,11,37,22.20
2015,06,22,11,38,22.30
2015,06,22,11,39,22.30
2015,06,22,11,40,22.30
2015,06,22,11,41,22.40
2015,06,22,11,42,22.40
2015,06,22,11,43,22.50
2015,06,22,11,44,22.60
2015,06,22,11,45,22.60
2015,06,22,11,46,22.60
2015,06,22,11,47,22.50
2015,06,22,11,48,22.40
2015,06,22,11,49,22.30
2015,06,22,11,50,22.20
2015,06,22,11,51,22.10
2015,06,22,11,52,22.10
2015,06,22,11,53,22.10
2015,06,22,11,54,22.10
2015,06,22,11,55,22.00
2015,06,22,11,56,22.00
2015,06,22,11,57,22.00
2015,06,22,11,58,22.10
2015,06,22,11,59,22.10
2015,06,22,12,00,22.10
2015,06,22,12,01,22.00
2015,06,22,12,02,21.90
2015,06,22,12,03,21.90
2015,06,22,12,04,21.90
2015,06,22,12,05,22.00
2015,06,22,12,06,22.10
2015,06,22,12,07,22.10
2015,06,22,12,08,22.20
2015,06,22,12,09,22.20
2015,06,22,12,10,22.20
2015,06,22,12,11,22.30
2015,06,22,12,12,22.40
2015,06,22,12,13,22.40
2015,06,22,12,14,22.40
2015,06,22,12,15,22.40
2015,06,22,12,16,22.40
2015,06,22,12,17,22.40
2015,06,22,12,18,22.40
2015,06,22,12,19,22.40
2015,06,22,12,20,22.40
2015,06,22,12,21,22.40
2015,06,22,12,22,22.40
2015,06,22,12,23,22.40
2015,06,22,12,24,22.50
2015,06,22,12,25,22.50
2015,06,22,12,26,22.60
2015,06,22,12,27,22.70
2015,06,22,12,28,22.80
2015,06,22,12,29,22.80
2015,06,22,12,30,22.80
2015,06,22,12,31,22.90
2015,06,22,12,32,23.00
2015,06,22,12,33,23.10
2015,06,22,12,34,23.10
2015,06,22,12,35,23.10
2015,06,22,12,36,23.10
2015,06,22,12,37,23.20
2015,06,22,12,38,23.20
2015,06,22,12,39,23.10
2015,06,22,12,40,23.20
2015,06,22,12,41,23.20
2015,06,22,12,42,23.20
2015,06,22,12,43,23.10
2015,06,22,12,44,23.10
2015,06,22,12,45,23.10
2015,06,22,12,46,23.00
2015,06,22,12,47,23.00
2015,06,22,12,48,22.90
2015,06,22,12,49,22.90
2015,06,22,12,50,22.90
2015,06,22,12,51,22.90
2015,06,22,12,52,23.00
2015,06,22,12,53,23.10
2015,06,22,12,54,23.10
2015,06,22,12,55,23.20
2015,06,22,12,56,23.30
2015,06,22,12,57,23.40
2015,06,22,12,58,23.40
2015,06,22,12,59,23.50
2015,06,22,13,00,23.50
2015,06,22,13,01,23.50
2015,06,22,13,02,23.40
2015,06,22,13,03,23.40
2015,06,22,13,04,23.40
2015,06,22,13,05,23.30
2015,06,22,13,06,23.30
2015,06,22,13,07,23.30
2015,06,22,13,08,23.30
2015,06,22,13,09,23.20
2015,06,22,13,10,23.20
2015,06,22,13,11,23.10
2015,06,22,13,12,23.10
2015,06,22,13,13,23.00
2015,06,22,13,14,22.90
2015,06,22,13,15,22.80
2015,06,22,13,16,22.80
2015,06,22,13,17,22.80
2015,06,22,13,18,22.80
2015,06,22,13,19,22.80
2015,06,22,13,20,22.80
2015,06,22,13,21,22.80
2015,06,22,13,22,22.80
2015,06,22,13,23,22.80
2015,06,22,13,24,22.70
2015,06,22,13,25,22.80
2015,06,22,13,26,22.80
2015,06,22,13,27,22.80
2015,06,22,13,28,22.90
2015,06,22,13,29,23.00
2015,06,22,13,30,23.00
2015,06,22,13,31,23.10
2015,06,22,13,32,23.10
2015,06,22,13,33,23.10
2015,06,22,13,34,23.10
2015,06,22,13,35,23.10
2015,06,22,13,36,23.10
2015,06,22,13,37,23.10
2015,06,22,13,38,23.10
2015,06,22,13,39,23.20
2015,06,22,13,40,23.30
2015,06,22,13,41,23.30
2015,06,22,13,42,23.40
2015,06,22,13,43,23.50
2015,06,22,13,44,23.50
2015,06,22,13,45,23.50
2015,06,22,13,46,23.50
2015,06,22,13,47,23.50
2015,06,22,13,48,23.50
2015,06,22,13,49,23.50
2015,06,22,13,50,23.40
2015,06,22,13,51,23.40
2015,06,22,13,52,23.40
2015,06,22,13,53,23.30
2015,06,22,13,54,23.20
2015,06,22,13,55,23.20
2015,06,22,13,56,23.20
2015,06,22,13,57,23.20
2015,06,22,13,58,23.30
2015,06,22,13,59,23.40
2015,06,22,14,00,23.40
2015,06,22,14,01,23.40
2015,06,22,14,02,23.40
2015,06,22,14,03,23.40
2015,06,22,14,04,23.40
2015,06,22,14,05,23.30
2015,06,22,14,06,23.30
2015,06,22,14,07,23.20
2015,06,22,14,08,23.20
2015,06,22,14,09,23.10
2015,06,22,14,10,23.20
2015,06,22,14,11,23.10
2015,06,22,14,12,23.10
2015,06,22,14,13,23.00
2015,06,22,14,14,22.90
2015,06,22,14,15,22.80
2015,06,22,14,16,22.80
2015,06,22,14,17,22.70
2015,06,22,14,18,22.80
2015,06,22,14,19,22.80
2015,06,22,14,20,22.90
2015,06,22,14,21,23.00
2015,06,22,14,22,23.10
2015,06,22,14,23,23.20
2015,06,22,14,24,23.30
2015,06,22,14,25,23.40
2015,06,22,14,26,23.50
2015,06,22,14,27,23.60
2015,06,22,14,28,23.60
2015,06,22,14,29,23.60
2015,06,22,14,30,23.70
2015,06,22,14,31,23.70
2015,06,22,14,32,23.70
2015,06,22,14,33,23.70
2015,06,22,14,34,23.70
2015,06,22,14,35,23.60
2015,06,22,14,36,23.60
2015,06,22,14,37,23.70
2015,06,22,14,38,23.70
2015,06,22,14,39,23.70
2015,06,22,14,40,23.70
2015,06,22,14,41,23.70
2015,06,22,14,42,23.70
2015,06,22,14,43,23.80
2015,06,22,14,44,23.80
2015,06,22,14,45,23.80
2015,06,22,14,46,23.80
2015,06,22,14,47,23.60
2015,06,22,14,48,23.40
2015,06,22,14,49,23.40
2015,06,22,14,50,23.30
2015,06,22,14,51,23.30
2015,06,22,14,52,23.20
2015,06,22,14,53,23.20
2015,06,22,14,54,23.20
2015,06,22,14,55,23.20
2015,06,22,14,56,23.30
2015,06,22,14,57,23.40
2015,06,22,14,58,23.60
2015,06,22,14,59,23.60
2015,06,22,15,00,23.60
2015,06,22,15,01,23.60
2015,06,22,15,02,23.60
2015,06,22,15,03,23.60
2015,06,22,15,04,23.50
2015,06,22,15,05,23.40
2015,06,22,15,06,23.30
2015,06,22,15,07,23.20
2015,06,22,15,08,23.20
2015,06,22,15,09,23.20
2015,06,22,15,10,23.20
2015,06,22,15,11,23.30
2015,06,22,15,12,23.20
2015,06,22,15,13,23.20
2015,06,22,15,14,23.30
2015,06,22,15,15,23.30
2015,06,22,15,16,23.40
2015,06,22,15,17,23.50
2015,06,22,15,18,23.60
2015,06,22,15,19,23.60
2015,06,22,15,20,23.60
2015,06,22,15,21,23.60
2015,06,22,15,22,23.50
2015,06,22,15,23,23.40
2015,06,22,15,24,23.40
2015,06,22,15,25,23.30
2015,06,22,15,26,23.30
2015,06,22,15,27,23.20
2015,06,22,15,28,23.20
2015,06,22,15,29,23.20
2015,06,22,15,30,23.20
2015,06,22,15,31,23.20
2015,06,22,15,32,23.20
2015,06,22,15,33,23.20
2015,06,22,15,34,23.30
2015,06,22,15,35,23.30
2015,06,22,15,36,23.30
2015,06,22,15,37,23.20
2015,06,22,15,38,23.20
2015,06,22,15,39,23.10
2015,06,22,15,40,23.10
2015,06,22,15,41,23.20
2015,06,22,15,42,23.20
2015,06,22,15,43,23.20
2015,06,22,15,44,23.30
2015,06,22,15,45,23.40
2015,06,22,15,46,23.50
2015,06,22,15,47,23.60
2015,06,22,15,48,23.70
2015,06,22,15,49,23.60
2015,06,22,15,50,23.60
2015,06,22,15,51,23.50
2015,06,22,15,52,23.40
2015,06,22,15,53,23.40
2015,06,22,15,54,23.40
2015,06,22,15,55,23.30
2015,06,22,15,56,23.30
2015,06,22,15,57,23.30
2015,06,22,15,58,23.30
2015,06,22,15,59,23.30
2015,06,22,16,00,23.20
2015,06,22,16,01,23.10
2015,06,22,16,02,23.10
2015,06,22,16,03,23.00
2015,06,22,16,04,23.00
2015,06,22,16,05,23.10
2015,06,22,16,06,23.00
2015,06,22,16,07,22.90
2015,06,22,16,08,22.90
2015,06,22,16,09,22.90
2015,06,22,16,10,22.90
2015,06,22,16,11,22.90
2015,06,22,16,12,22.90
2015,06,22,16,13,23.10
2015,06,22,16,14,23.20
2015,06,22,16,15,23.30
2015,06,22,16,16,23.30
2015,06,22,16,17,23.40
2015,06,22,16,18,23.50
2015,06,22,16,19,23.50
2015,06,22,16,20,23.40
2015,06,22,16,21,23.40
2015,06,22,16,22,23.30
2015,06,22,16,23,23.30
2015,06,22,16,24,23.30
2015,06,22,16,25,23.30
2015,06,22,16,26,23.30
2015,06,22,16,27,23.30
2015,06,22,16,28,23.30
2015,06,22,16,29,23.30
2015,06,22,16,30,23.20
2015,06,22,16,31,23.10
2015,06,22,16,32,23.20
2015,06,22,16,33,23.30
2015,06,22,16,34,23.30
2015,06,22,16,35,23.40
2015,06,22,16,36,23.50
2015,06,22,16,37,23.50
2015,06,22,16,38,23.50
2015,06,22,16,39,23.50
2015,06,22,16,40,23.50
2015,06,22,16,41,23.50
2015,06,22,16,42,23.60
2015,06,22,16,43,23.60
2015,06,22,16,44,23.50
2015,06,22,16,45,23.40
2015,06,22,16,46,23.40
2015,06,22,16,47,23.40
2015,06,22,16,48,23.40
2015,06,22,16,49,23.30
2015,06,22,16,50,23.30
2015,06,22,16,51,23.20
2015,06,22,16,52,23.20
2015,06,22,16,53,23.20
2015,06,22,16,54,23.10
2015,06,22,16,55,23.10
2015,06,22,16,56,23.10
2015,06,22,16,57,23.10
2015,06,22,16,58,23.10
2015,06,22,16,59,23.10
2015,06,22,17,00,23.10
2015,06,22,17,01,23.10
2015,06,22,17,02,23.20
2015,06,22,17,03,23.20
2015,06,22,17,04,23.20
2015,06,22,17,05,23.20
2015,06,22,17,06,23.10
2015,06,22,17,07,23.10
2015,06,22,17,08,23.10
2015,06,22,17,09,23.00
2015,06,22,17,10,23.00
2015,06,22,17,11,22.90
2015,06,22,17,12,23.00
2015,06,22,17,13,23.00
2015,06,22,17,14,23.00
2015,06,22,17,15,23.00
2015,06,22,17,16,23.00
2015,06,22,17,17,23.00
2015,06,22,17,18,23.10
2015,06,22,17,19,23.10